Location: Anglesea
(53.2500°N, 4.3333°W)
Time: 17:34:36
(UTC+00:00)

Daily predictions for brighter satellites

Satellite Brightness Start Highest point End
(mag) Time Altitude Azimuth Time Altitude Azimuth Time Altitude Azimuth
Cosmos 2058 Rocket 3.3 17:19:31 10° N 17:23:58 53° ENE 17:28:23 10° SSE
H-2A R/B 3.2 17:20:27 10° ESE 17:24:15 22° NE 17:28:09 10° N
Cosmos 1726 Rocket 3.5 17:21:40 10° N 17:26:04 82° ENE 17:30:29 10° SSE
SL-24 R/B 4.3 17:23:03 10° SSE 17:27:33 75° ENE 17:32:33 10° NNW
AQUARIUS 4.1 17:24:11 10° SSE 17:28:40 75° ENE 17:33:11 10° NNW
X-37B 3.1 17:27:57 10° SSW 17:29:56 16° SSE 17:31:57 10° SE
Cosmos 1315 Rocket 3.9 17:26:32 10° NNW 17:30:25 49° W 17:34:19 10° S
CORIOLIS 4.1 17:25:38 10° SSE 17:31:01 79° ENE 17:36:25 10° NNW
NOSS 3-1 (C) 4.0 17:26:52 10° NW 17:33:55 71° NE 17:42:16 10° ESE
Nadezhda 4 Rocket 4.5 17:28:47 10° SSE 17:34:26 38° E 17:40:04 10° NNE
Cosmos 1455 2.6 17:32:11 10° N 17:35:49 39° ENE 17:39:27 10° SE
Cosmos 1818 4.1 17:31:29 10° S 17:36:34 42° ESE 17:41:41 10° NE
Cosmos 1538 Rocket 4.5 17:32:30 10° NNW 17:37:39 67° WSW 17:42:45 10° SSE
Cosmos 1777 Rocket 4.0 17:32:24 10° SSW 17:37:39 72° ESE 17:42:57 10° NNE
Cosmos 1939 Rocket 3.1 17:33:56 10° SE 17:37:51 47° ENE 17:41:45 10° N
CZ-2D R/B 3.9 17:36:12 10° SE 17:39:40 33° ENE 17:43:08 10° N
Envisat 4.3 17:34:48 10° S 17:39:41 46° W 17:44:35 10° NNW
CZ-4B R/B 2.8 17:37:47 10° NE 17:40:20 20° E 17:42:50 10° SE
Cosmos 2112 Rocket 4.2 17:36:12 10° NNW 17:41:20 50° ENE 17:46:23 10° SE
Cosmos 2263 Rocket 2.8 17:36:42 10° SW 17:42:18 59° NW 17:47:54 10° NNE
Cosmos 1300 4.3 17:39:36 10° NNW 17:43:12 40° W 17:46:47 10° SSW
Feng Yun 1-1 Rocket 4.3 17:41:04 10° SE 17:46:25 57° ENE 17:51:57 10° N
ARGOS 4.1 17:42:53 10° ESE 17:47:11 25° NE 17:51:30 10° N
CZ-2C R/B 4.4 17:51:11 12° ENE 17:51:35 12° E 17:53:29 10° E
Okean 1-7 Rocket 3.8 17:47:54 10° S 17:52:19 53° E 17:56:48 10° NNE
CZ-2C R/B 3.4 17:47:08 10° SE 17:52:26 52° ENE 17:57:59 10° N
USA 229 DEB 3.9 17:46:38 10° NW 17:53:46 69° NE 18:01:22 10° ESE
USA 229 3.9 17:46:44 10° NW 17:53:52 69° NE 18:01:27 10° ESE
COSMO-SKYMED 1 3.3 17:50:47 10° NNE 17:54:42 32° E 17:58:37 10° SSE
MOS 1 Rocket 4.0 17:51:11 10° NE 17:54:50 26° E 17:58:28 10° SSE
NOAA 11 4.4 17:50:05 10° S 17:55:36 77° WSW 18:01:08 10° NNW
Cosmos 2344 4.2 17:50:36 10° NW 17:59:12 71° NE 18:11:01 10° ESE
NOSS 3-4 (A) 4.4 17:53:54 10° W 17:59:38 39° NNW 18:05:31 12° NE
NOSS 3-4 (C) 4.4 17:54:00 10° W 17:59:44 40° NNW 18:05:37 12° NE
CZ-4 R/B 1.9 17:56:57 10° SE 18:00:37 35° ENE 18:04:15 10° N
Cosmos 1626 4.3 17:58:52 10° SW 18:02:02 26° WNW 18:05:14 10° N
SeaSat 1 3.3 17:58:38 10° NNE 18:03:23 48° NW 18:08:07 10° WSW
Cosmos 158 Rocket 4.3 17:59:14 10° NNW 18:04:35 77° WSW 18:09:58 10° SSE
Cosmos-2242 3.9 18:03:29 10° N 18:07:08 26° ENE 18:10:46 10° SE
SMAP 4.4 18:04:38 10° S 18:09:05 45° W 18:13:34 10° NNW
COSMOS 2455 2.9 18:03:15 10° SW 18:09:17 89° NW 18:15:18 10° NE
NOSS 3-1 (A) 4.0 18:02:12 10° NW 18:09:18 73° NE 18:17:42 10° ESE
TELKOM 3 4.1 18:07:49 10° WSW 18:09:53 31° S 18:11:01 20° ESE
Meteor 2-10 Rocket 4.2 18:06:14 10° NNW 18:11:39 61° W 18:16:48 10° S
Meteor 2-1 Rocket 4.2 18:06:34 10° NNW 18:12:10 90° WSW 18:17:41 10° S
Cosmos 1833 Rocket 2.9 18:07:24 10° NNW 18:12:53 49° NE 18:18:19 10° SE
CZ-4C R/B 3.3 18:08:24 10° W 18:13:41 38° NNW 18:19:07 14° NE
USA 290 3.2 18:11:18 10° N 18:14:08 27° NE 18:14:58 24° E
Landsat 5 4.2 18:11:35 10° N 18:15:24 50° WNW 18:19:07 10° SW
COSMOS 2406 3.3 18:10:48 10° NNW 18:16:32 57° NE 18:22:13 10° SE
ATLAS 2AS CENTAUR R/B 3.7 18:09:39 10° W 18:17:13 45° NNW 18:23:33 14° NE
H-2A R/B 2.3 18:13:20 10° NNE 18:17:47 75° WNW 18:22:07 10° SSW
Cosmos 1703 3.6 18:15:36 10° SSE 18:19:15 41° E 18:22:56 10° NNE
Lacrosse 5 4.2 18:17:10 10° WNW 18:21:15 25° SW 18:25:18 10° S
Cosmos 1602 Rocket 3.9 18:17:16 10° SSE 18:21:22 42° E 18:25:31 10° NNE
Ariane Rocket 4.4 18:23:26 19° NE 18:23:39 19° NE 18:27:06 10° N
Cosmos 2082 Rocket 2.7 18:20:37 10° NNW 18:26:00 39° NE 18:29:42 19° ESE
YAOGAN 1 2.6 18:22:20 10° SSE 18:26:34 55° ENE 18:30:49 10° N
Cosmos 405 3.2 18:23:54 10° N 18:27:20 45° ENE 18:30:45 10° SSE
Cosmos 1892 Rocket 4.4 18:23:57 10° SSW 18:28:10 52° WNW 18:32:26 10° N
Iridium 4 Rocket 3.7 18:22:54 10° N 18:28:25 52° E 18:33:27 10° SSE
Cosmos 1844 3.7 18:22:55 10° SSW 18:28:35 74° ESE 18:33:53 12° NE
Okean O Rocket 3.3 18:25:11 10° SSW 18:29:18 37° W 18:33:26 10° NNW
Aureole 3 3.5 18:27:53 10° NNW 18:31:10 54° W 18:34:06 10° S
SJ 16-02 1.3 18:27:03 10° SSW 18:31:28 84° WNW 18:35:45 11° NNE
Cosmos 1844 Rocket 2.7 18:28:34 10° SSW 18:34:14 87° WNW 18:39:33 12° NNE
S3M 4.5 18:28:52 10° N 18:34:24 34° ENE 18:39:55 10° SE
Aureole 3 Rocket 2.3 18:32:08 10° N 18:35:09 54° ENE 18:38:34 10° SSE
Okean-O 2.5 18:31:00 10° SSE 18:35:25 68° ENE 18:39:51 10° N
ISS -3.4 18:32:38 10° WSW 18:35:56 53° SSE 18:37:00 35° ESE
Cosmos 1812 Rocket 3.4 18:31:52 10° N 18:36:17 80° ENE 18:40:39 10° SSE
USA 234 3.4 18:32:16 21° ENE 18:36:45 65° N 18:43:14 10° WNW
Cosmos 1825 Rocket 4.5 18:33:48 10° SSE 18:36:58 27° ESE 18:36:58 27° ESE
Aureole 2 Rocket 3.6 18:35:34 10° SW 18:38:27 36° WNW 18:40:52 14° N
Cosmos 2227 Rocket 4.4 18:37:35 10° NW 18:40:44 15° NNW 18:43:54 10° NNE
SKYMED 2 3.5 18:38:34 10° NNE 18:42:57 86° ESE 18:47:19 10° SSW
Cosmos 1680 Rocket 4.3 18:39:15 10° NNW 18:44:22 54° WSW 18:49:26 10° S
Cosmos 1898 Rocket 3.5 18:39:30 10° S 18:44:38 57° ESE 18:48:07 20° NE
NOSS 2-1 (E) 3.4 18:49:48 10° SSW 18:52:49 42° SE 18:52:49 42° SE
ATLAS 5 CENTAUR R/B 3.0 18:50:13 10° W 18:54:11 31° NNW 18:56:38 20° NNE
Cosmos 1048 Rocket 4.4 18:49:20 10° NNW 18:54:12 41° NE 18:55:19 36° E
Cosmos 1627 Rocket 4.4 18:50:03 10° S 18:56:14 72° E 19:02:31 10° NNE
Cosmos 2278 Rocket 2.8 18:51:39 10° S 18:56:42 34° ESE 18:57:16 34° E
CSL-04 Rocket 3.6 18:51:20 10° SSE 18:56:44 69° ENE 19:02:15 10° NNW
Helios 1A Rocket 2.8 18:53:59 10° SSE 18:58:09 85° ENE 19:02:19 10° NNW
SJ-11-01 4.2 18:54:56 10° SSE 18:59:38 89° W 19:04:21 10° NNW
Cosmos 1328 3.6 18:56:44 10° S 19:00:43 84° E 19:03:23 20° NNE
Cosmos 2098 Rocket 4.3 18:55:25 10° S 19:02:44 68° E 19:09:53 10° NNE
H-2A R/B 2.1 18:58:04 10° SSE 19:03:08 79° WSW 19:08:23 10° NNW
USA 281 4.1 19:03:26 27° NE 19:04:28 28° NE 19:09:49 10° NNW
Cosmos 44 3.3 18:59:40 10° SW 19:04:34 81° SE 19:06:36 37° NE
ERS-2 1.9 19:03:24 42° NNE 19:04:34 86° ESE 19:08:12 10° SSW
Cosmos 2297 Rocket 4.4 19:02:18 10° NW 19:04:55 13° N 19:07:30 10° NNE
X-37B 2.7 19:03:34 10° SW 19:05:53 19° S 19:06:03 19° S
SL-08 RB Rocket 3.6 19:03:41 28° SE 19:05:54 60° ENE 19:10:20 10° N
Cosmos 1092 Rocket 4.0 19:01:16 10° SSW 19:07:27 83° W 19:13:39 10° N
Cosmos 1340 2.7 19:06:19 10° SSW 19:10:04 76° WNW 19:11:39 33° N
Cosmos 1937 Rocket 3.4 19:06:38 10° SSW 19:11:55 69° ESE 19:14:13 34° NE
CZ-4B R/B 2.9 19:09:49 12° N 19:12:40 35° WNW 19:15:42 10° SW
Cosmos 1689 Rocket 4.5 19:16:36 16° SSW 19:16:36 16° SSW 19:17:16 10° SSW
Meteor 1-11 4.1 19:11:31 10° S 19:17:10 73° E 19:22:48 10° NNE
Cosmos 1818 4.1 19:14:45 10° WSW 19:20:05 54° NW 19:22:41 29° NNE
Meteor 2-19 Rocket 4.3 19:20:29 10° S 19:26:39 84° E 19:32:51 10° NNE
ARGOS 3.3 19:21:39 10° S 19:27:01 72° WSW 19:32:25 10° NNW
Cosmos 2263 Rocket 4.2 19:23:19 10° WNW 19:27:27 20° NNW 19:31:15 11° NNE
COSMO-SKYMED 1 4.0 19:26:55 10° N 19:30:55 37° WNW 19:34:55 10° SW
CZ-2C R/B 2.7 19:32:39 60° E 19:33:00 61° ESE 19:38:34 10° S
MOS 1 Rocket 4.3 19:29:13 10° N 19:33:17 41° WNW 19:37:18 10° SW
SAR-Lupe-4 4.2 19:33:44 54° W 19:33:44 54° W 19:36:59 10° SSW
CZ-4 R/B 3.4 19:32:09 10° SSW 19:35:42 29° W 19:39:13 10° NNW
Cosmos 1758 Rocket 4.0 19:37:19 10° SSW 19:41:44 62° WNW 19:43:43 31° N
NOSS 2-1 (C) 4.4 19:38:47 10° WSW 19:40:50 35° WSW 19:40:50 35° WSW
NOSS 2-2 (C) 4.1 19:37:49 10° NW 19:42:43 67° NE 19:42:55 66° NE
Cosmos-2242 4.2 19:40:48 10° NNW 19:44:51 41° W 19:48:54 10° SSW
IRS-1A Rocket 4.2 19:51:44 75° E 19:51:57 76° ENE 19:57:50 10° NNW
NOSS 3-4 (A) 4.4 19:46:10 10° NW 19:52:05 37° N 19:52:58 35° NNE
NOSS 3-4 (C) 4.4 19:46:16 10° NW 19:52:10 37° N 19:53:03 35° NNE
COSMOS 2455 4.2 19:50:36 10° W 19:55:59 32° NNW 19:58:27 24° NNE
Cosmos 1833 Rocket 3.9 19:51:33 10° NW 19:56:44 39° WSW 20:01:54 10° S
Ariane Rocket 3.7 20:03:38 44° NNW 20:03:38 44° NNW 20:07:05 10° NNW
CZ-4C R/B 3.5 19:58:02 10° NW 20:03:47 37° NNE 20:04:18 36° NNE
Cosmos 2315 Rocket 4.1 19:59:34 10° N 20:04:48 61° NNE 20:04:48 61° NNE
NOSS 2-2 (E) 4.3 20:01:33 10° NW 20:06:39 86° W 20:06:39 86° W
ATLAS 2AS CENTAUR R/B 3.6 20:02:40 10° WNW 20:09:54 39° N 20:10:59 37° NNE
Cosmos 2082 Rocket 2.8 20:04:45 10° NW 20:10:19 53° WSW 20:11:37 44° SSW
SJ 16-02 3.9 20:07:53 10° W 20:10:46 17° NW 20:12:45 13° NNW
Meteor 2-2 Rocket 4.3 20:06:16 10° NNW 20:12:10 80° W 20:12:10 80° W
ISS -0.7 20:09:15 10° W 20:09:59 15° W 20:09:59 15° W
Cosmos 883 Rocket 4.4 20:10:24 10° NNW 20:16:31 81° WNW 20:16:31 81° WNW
Cosmos 1655 Rocket 3.9 20:10:35 10° SSW 20:20:33 26° N 20:23:05 10° N
Cosmos 1844 Rocket 4.5 20:14:14 10° W 20:18:55 26° NW 20:21:14 20° N
USA 234 3.1 20:19:37 87° NNE 20:19:38 87° NNE 20:26:14 10° WNW
Cosmos 2227 Rocket 4.4 20:24:24 10° NNW 20:26:32 14° N 20:26:32 14° N
ATLAS 5 CENTAUR R/B 3.9 20:35:59 10° NW 20:38:10 21° NNW 20:38:10 21° NNW
Cosmos 2278 Rocket 3.2 20:35:01 10° SW 20:39:11 44° W 20:39:11 44° W
USA 281 3.9 20:50:19 47° NNW 20:50:19 47° NNW 20:54:49 10° NNW
CZ-4C R/B 4.4 21:46:49 10° NW 21:49:29 27° NW 21:49:29 27° NW
ATLAS 2AS CENTAUR R/B 4.3 21:54:37 10° NW 21:58:25 31° NW 21:58:25 31° NW
